Volver al catálogo

COSMOS 1823 DEB

ActivoLEO
NORAD 39825·DEBRIS·🇷🇺 Russia

Lanzado Feb 20, 1987 desde Plesetsk Cosmodrome

Loading…

Próximos Pases (próximas 24 horas)

TLE

ObsoletoSource: Space-Track

Época: Aug 17, 2026, 22:18 UTC

1 39825U 87020EZ  26229.92926483  .00000009  00000-0  18685-3 0  9998
2 39825  73.5984 283.1372 0024873 116.2259  59.5523 12.42937769996420

Sigue COSMOS 1823 DEB en tiempo real con AllMySat

Download on the App Store